GFSFLT2_850_rhum_000.txt.gz
RH
74 70 76 72 70 88 91 87 90 76 76 76 78 82 87 82 76 73 73 76 75 81 75 78 72 76 75
76 78 74 80 98 91 73 69 75 74 80 81 75 73 72 73 76 76 91 97 91 85 82 87 92 91 90
85 80 74 100 94 69 74 71 61 69 80 81 83 83 86 90 97 94 83 80 78 81 77 77 80 76 81
97 90 98 90 85 82 74 75 76 92 95 93 91 90 91 85 84 86 89 87 85 85 82 84 90 93 94
89 98 97 83 88 87 94 88 96 97 82 81 93 90 86 86 88 92 95 96 92 96 95 91 95 99 100
96 86 93 95 90 99 98 97 89 85 91 94 98 89 89 91 94 94 91 88 96 87 92 98 98 98 94
85 89 100 94 98 100 98 100 99 94 92 100 89 98 81 79 90 96 95 92 94 98 99 98 99 99 95
94 96 98 96 96 99 97 98 98 89 93 99 91 89 76 80 74 72 99 100 98 100 98 98 97 99 97
100 95 91 95 99 96 95 100 98 97 75 99 89 95 91 84 69 74 98 96 95 98 99 100 100 99 94
76 67 70 78 100 100 97 99 100 100 76 98 96 98 98 90 84 91 82 87 100 99 99 98 98 98 95
75 82 88 89 91 95 97 98 97 97 80 98 98 98 100 98 93 87 81 74 82 96 96 96 97 97 96
96 95 91 90 93 94 96 95 96 98 94 97 97 100 98 98 100 78 75 79 96 96 96 97 98 98 98
96 92 95 94 93 94 91 93 93 94 95 97 98 96 98 97 99 86 86 83 96 97 97 98 98 99 99
99 92 93 96 96 97 96 93 95 89 90 96 96 98 99 94 90 86 96 98 92 98 98 98 99 99 100
95 96 94 96 94 95 95 95 97 96 94 90 94 97 96 95 93 96 96 97 98 98 97 98 99 100 100
94 96 96 98 96 95 95 96 96 96 96 95 94 90 91 93 95 96 98 98 98 98 97 98 98 99 100
95 96 97 94 97 96 96 96 94 97 96 96 96 96 94 96 97 98 98 97 97 98 98 98 98 98 100

GFSFLT2_850_rhum_003.txt.gz
RH
78 76 70 73 84 85 98 97 90 85 79 74 74 76 78 85 92 92 90 92 80 76 75 86 82 89 92
78 71 69 83 66 68 98 67 75 77 77 78 79 81 88 91 87 92 85 93 95 96 99 95 95 88 90
88 73 90 78 90 98 65 65 74 77 77 90 91 90 87 85 88 89 97 93 92 94 93 89 84 80 80
94 96 86 92 87 81 72 83 85 77 98 93 89 86 88 89 86 86 88 86 87 85 86 85 83 82 77
100 98 90 80 79 78 98 95 96 94 93 87 89 94 92 91 88 90 93 92 94 97 97 95 97 96 96
96 96 66 91 95 100 100 100 96 91 95 95 94 86 75 73 90 98 90 87 94 94 92 94 96 98 95
86 88 99 95 98 95 99 99 99 96 100 99 76 80 68 72 84 99 100 96 93 97 100 98 97 95 92
97 95 98 97 98 99 98 98 96 91 99 98 86 88 82 80 69 73 100 100 99 97 95 97 98 98 98
100 98 93 96 100 97 94 99 100 99 91 100 85 98 97 87 79 87 100 97 94 97 96 96 97 99 98
79 70 71 77 99 98 97 97 100 100 93 97 95 100 97 91 84 90 89 87 100 100 100 100 100 99 93
77 79 85 87 87 94 96 98 97 98 87 98 98 94 100 99 91 88 88 83 85 91 95 96 96 98 97
94 96 88 86 85 89 93 95 96 97 94 96 97 100 98 99 99 75 80 84 94 92 96 96 96 97 98
99 88 92 91 90 93 92 91 90 92 95 95 100 98 99 96 97 88 97 86 93 97 97 98 98 98 98
97 91 92 91 92 96 96 92 95 80 84 96 98 98 95 94 97 95 97 97 94 99 98 98 98 98 98
93 94 93 95 94 94 96 94 96 96 90 89 92 96 97 97 95 97 97 96 98 98 97 94 97 99 99
91 96 97 98 96 94 95 98 96 94 96 96 93 84 84 85 96 94 98 98 98 97 96 98 98 100 100
95 96 97 95 96 95 96 97 93 97 96 96 96 98 96 97 96 98 99 98 97 96 96 98 98 98 100

GFSFLT2_850_rhum_009.txt.gz
RH
86 79 89 89 84 92 98 99 98 95 89 89 90 86 87 91 91 90 88 92 92 96 98 98 98 98 99
86 88 82 91 96 100 100 93 87 87 91 89 88 89 91 92 96 96 98 98 99 94 98 97 96 96 94
87 81 98 100 99 90 85 77 82 90 93 95 97 97 98 95 95 95 93 96 93 93 97 98 98 98 99
98 97 94 84 85 83 85 87 94 96 94 99 98 96 97 96 98 97 95 95 93 92 93 95 96 90 89
99 96 91 85 86 90 99 99 98 97 92 94 91 96 92 97 98 100 100 100 98 97 97 96 97 96 92
100 91 83 92 95 100 100 100 100 93 97 96 89 90 90 89 98 100 100 100 97 96 96 98 95 93 97
90 91 97 100 98 93 95 98 100 93 100 100 86 97 89 84 92 100 100 100 99 99 100 100 98 96 96
99 95 98 98 100 100 96 95 93 82 100 99 83 97 92 81 76 90 100 100 100 99 99 98 98 99 99
100 100 81 82 91 100 99 100 98 90 86 100 98 100 96 74 76 91 100 100 100 100 100 100 100 100 98
82 73 71 69 74 92 97 98 100 98 86 98 100 100 96 85 82 80 94 94 98 100 100 100 100 100 97
75 73 76 79 82 86 92 98 97 98 81 99 96 93 100 97 77 76 96 93 96 89 93 97 97 98 99
94 94 88 80 84 84 88 89 92 96 93 98 97 99 98 99 100 76 89 84 94 95 97 96 98 98 98
100 89 88 89 85 87 86 86 85 86 95 98 99 98 100 98 97 84 96 85 89 96 96 97 98 96 97
99 89 90 89 89 92 94 92 90 78 79 95 97 99 96 92 97 94 89 100 96 96 97 97 96 97 97
94 91 92 93 88 91 96 94 96 91 82 77 88 90 75 74 79 84 93 98 100 96 97 99 94 97 97
94 97 96 95 95 93 96 96 94 89 90 92 91 85 71 63 74 92 93 100 96 96 97 99 97 100 100
96 93 95 96 97 95 95 95 92 92 97 92 96 100 100 100 72 83 98 96 98 98 98 98 98 100 99

GFSFLT2_850_rhum_012.txt.gz
RH
61 66 72 74 72 75 78 82 81 80 80 83 88 90 93 95 96 95 92 94 92 94 93 93 94 98 99
73 75 75 79 83 82 78 70 69 69 78 87 94 95 95 96 94 95 96 96 98 98 98 98 98 98 98
78 75 86 91 87 77 72 69 72 78 81 86 90 95 98 98 96 94 94 95 98 97 95 95 93 93 91
86 97 92 83 76 67 70 77 84 86 84 93 92 93 94 91 93 96 98 96 96 96 96 96 96 96 93
98 94 87 73 66 74 87 91 88 92 84 87 81 84 89 92 93 94 94 95 96 98 98 99 98 95 95
98 90 73 70 78 89 100 99 96 87 88 86 92 90 90 89 90 94 96 98 99 99 98 99 99 98 98
90 76 81 87 89 94 95 98 97 88 97 91 87 90 88 86 92 98 100 100 100 100 100 99 99 98 98
86 90 93 94 97 98 95 95 92 96 95 96 83 91 88 77 74 76 100 100 100 100 100 100 99 100 99
99 100 98 100 100 99 95 98 98 97 96 94 89 96 90 72 73 76 92 98 96 96 98 98 100 100 99
93 93 94 97 100 100 96 98 100 98 88 97 100 100 96 84 78 65 70 74 93 96 97 99 98 98 95
94 94 95 95 99 97 99 100 99 98 79 99 99 100 100 96 73 67 76 79 90 87 90 94 98 98 98
100 100 100 91 87 86 83 86 92 95 87 96 97 100 100 99 100 73 77 79 87 92 94 91 90 95 99
100 100 99 86 87 90 86 88 86 82 82 85 100 97 100 98 100 95 98 80 79 95 97 97 97 97 99
100 100 100 95 90 93 97 93 96 77 77 83 94 99 96 100 100 98 74 100 97 96 99 100 97 98 98
100 99 98 99 89 90 96 96 99 96 85 80 86 100 98 99 93 74 93 98 92 98 97 99 99 97 97
95 98 98 95 94 91 96 98 100 97 100 97 99 98 95 83 90 94 94 92 95 98 99 98 98 92 98
98 96 96 96 96 94 94 95 94 96 100 100 100 100 97 98 73 69 95 91 96 100 100 99 97 96 98

GFSFLT2_850_rhum_015.txt.gz
RH
67 69 70 72 71 76 81 70 76 73 74 77 82 87 90 92 95 97 95 96 98 99 97 98 98 97 93
76 77 76 71 81 88 85 75 72 66 73 81 86 88 90 91 95 97 95 98 95 98 98 99 98 98 99
79 78 78 87 94 87 74 71 66 72 77 84 88 90 95 93 91 91 92 92 95 97 99 99 98 98 99
83 80 95 97 84 74 69 72 80 83 82 82 90 89 90 87 91 96 95 96 96 96 95 98 96 98 98
93 100 97 85 80 74 80 89 74 98 84 75 88 76 77 90 92 95 96 96 96 97 98 99 99 99 98
99 98 94 83 79 90 83 98 100 77 95 73 88 85 83 86 91 93 94 98 100 100 100 99 99 99 98
95 88 86 82 78 88 99 98 98 76 90 80 82 82 78 79 92 96 99 98 100 100 100 100 100 100 100
84 89 85 91 98 98 98 88 84 82 100 96 83 81 88 80 61 62 68 99 99 100 100 98 96 95 99
92 98 98 95 95 94 84 97 95 94 98 100 93 89 84 65 61 70 83 72 71 76 93 100 100 97 96
90 90 91 90 95 94 97 96 97 100 87 96 97 99 96 84 76 63 58 63 69 72 82 94 97 98 96
92 91 91 94 97 92 89 99 96 94 79 100 97 96 100 99 76 67 68 65 67 67 68 75 92 98 97
93 94 98 94 88 87 87 90 99 100 86 98 98 100 99 97 97 71 70 68 73 72 77 88 93 93 98
94 97 96 93 90 89 92 100 95 85 83 87 100 100 100 98 99 88 98 76 64 74 93 97 96 96 97
94 95 96 91 89 92 96 91 100 79 75 86 100 100 97 97 100 100 97 100 90 100 100 97 91 96 98
99 96 93 95 88 90 94 100 100 100 89 79 88 99 100 98 99 88 98 100 98 96 100 99 84 98 97
96 97 99 96 94 91 96 99 100 100 100 95 100 99 88 91 97 95 92 92 92 92 96 100 92 78 95
97 96 96 95 97 94 98 98 96 93 88 100 100 98 99 98 76 98 98 94 97 100 100 100 99 83 93

GFSFLT2_850_rhum_018.txt.gz
RH
62 74 78 79 79 72 69 87 80 79 80 83 79 84 87 89 94 94 96 98 99 99 100 99 98 99 98
84 84 86 78 67 78 91 80 67 74 78 79 86 89 91 92 93 96 96 96 96 98 99 99 98 99 98
85 81 73 72 86 82 78 69 77 71 80 83 88 95 95 94 92 90 92 94 95 96 98 99 98 98 99
87 92 93 89 96 86 79 80 71 70 70 59 92 56 79 90 94 96 100 99 97 97 94 96 98 99 99
100 98 99 84 94 88 86 79 70 75 94 63 71 61 60 61 66 68 100 99 99 98 100 100 99 100 99
99 96 89 93 90 86 78 86 100 93 89 67 69 64 66 68 68 98 100 100 100 100 100 100 100 100 100
88 91 92 90 90 89 94 100 99 76 87 79 67 75 75 69 67 83 98 99 99 100 100 100 100 100 100
95 94 94 94 97 98 99 99 82 69 90 98 74 80 74 70 64 61 62 67 98 98 98 100 100 100 100
95 100 100 100 100 97 93 98 94 86 88 100 83 88 78 68 65 72 75 88 66 66 82 98 100 100 100
83 74 71 76 82 91 98 100 96 94 81 97 94 100 96 88 77 68 64 63 66 67 66 72 74 86 93
79 77 76 79 84 87 89 99 98 96 74 99 96 97 100 96 81 70 76 67 70 65 64 64 66 75 99
90 82 83 84 85 87 85 88 90 97 82 94 96 99 97 97 97 82 76 73 78 75 71 70 69 70 84
89 83 87 88 88 86 81 85 88 83 82 84 100 99 98 99 100 92 95 77 75 84 82 83 84 86 99
93 89 90 91 88 91 96 93 96 79 74 82 89 100 99 96 100 96 80 100 85 85 93 96 86 91 90
94 94 92 94 91 92 94 97 100 94 87 76 82 91 90 95 99 84 85 95 93 98 100 100 82 93 92
95 96 96 96 96 92 95 95 97 92 92 85 91 90 85 95 96 94 88 89 88 94 95 100 100 93 88
96 96 97 95 97 94 94 98 96 92 87 92 96 99 99 98 89 98 96 93 96 91 93 100 100 93 85

GFSFLT2_850_rhum_021.txt.gz
RH
48 49 60 59 52 57 60 67 68 57 88 91 90 89 89 91 92 92 96 95 98 98 98 98 98 98 98
65 70 70 66 66 74 74 72 64 61 83 87 89 94 95 97 97 97 92 96 99 100 98 97 97 98 97
89 87 81 70 89 90 73 73 71 70 76 63 69 67 99 96 98 97 96 96 97 99 99 99 99 100 99
97 89 81 88 93 83 79 82 73 68 72 67 80 61 59 60 68 68 71 99 100 100 100 98 98 98 99
90 88 100 93 83 88 88 79 76 76 81 91 73 58 56 60 62 60 68 100 100 100 100 99 98 98 98
94 99 88 82 89 94 88 89 100 89 96 88 60 60 60 65 64 83 91 100 100 100 100 100 100 100 100
90 86 96 92 91 91 96 100 99 80 85 90 62 64 66 71 66 61 61 81 97 100 100 100 100 100 100
87 92 96 94 98 99 97 99 90 77 79 100 82 78 72 71 64 58 61 65 96 100 100 100 98 98 100
77 97 100 97 93 100 92 97 89 83 73 92 83 85 84 69 64 66 69 75 70 67 94 98 100 100 100
88 77 73 72 78 87 95 99 97 99 76 99 92 92 100 83 83 73 65 64 64 68 70 78 90 100 98
81 73 71 73 79 82 86 95 97 100 76 100 97 94 100 98 89 76 72 67 69 66 66 72 77 84 100
78 76 78 78 79 81 84 85 87 88 82 88 96 99 97 96 95 83 76 71 72 68 68 68 70 73 80
85 84 86 85 82 82 81 82 83 76 78 85 97 97 98 99 100 91 90 73 67 70 75 77 79 76 89
92 88 86 86 84 86 89 92 93 78 73 82 88 96 96 95 100 96 77 97 76 76 83 90 86 93 99
94 91 89 91 87 86 89 94 100 94 84 74 80 90 91 91 93 80 78 80 77 81 95 100 88 91 92
92 93 95 93 91 89 96 96 97 92 90 84 91 90 82 87 93 88 79 86 85 94 98 100 98 94 100
94 94 95 94 97 93 94 96 93 91 86 92 96 98 98 100 86 99 96 93 96 92 92 99 100 97 94

GFSFLT2_850_rhum_027.txt.gz
RH
38 39 43 39 32 34 33 35 30 26 29 47 98 100 99 97 97 97 99 99 98 99 100 99 99 100 100
50 54 59 52 57 56 46 34 32 36 41 59 96 88 98 100 100 100 98 98 100 98 99 98 96 99 99
70 72 74 65 63 56 48 40 43 47 48 53 56 63 100 100 100 100 100 99 98 95 96 98 99 100 99
75 87 89 70 71 69 60 46 61 54 51 61 60 66 65 56 56 52 52 52 57 94 98 100 100 100 100
96 95 87 85 81 70 67 78 74 62 58 70 67 60 52 54 56 54 54 54 62 98 100 100 100 99 100
98 99 92 88 76 75 88 94 98 82 71 68 66 58 58 58 56 56 56 59 98 100 100 100 100 99 99
95 90 88 69 84 94 98 100 98 76 78 74 69 61 61 61 58 58 57 57 76 98 100 100 100 100 99
80 74 82 94 96 100 100 94 81 75 78 78 67 68 70 62 58 54 57 60 63 75 100 100 99 100 99
67 75 90 87 81 85 77 87 82 78 77 85 74 82 77 69 66 65 67 67 69 72 85 100 100 100 98
56 63 66 67 73 80 85 93 96 95 88 98 90 98 95 84 80 78 70 67 66 67 71 80 100 100 100
62 65 66 69 72 76 82 88 95 96 77 100 93 92 100 97 85 74 74 70 72 67 67 71 78 96 100
72 71 72 73 75 77 80 83 89 90 77 87 96 98 97 94 90 76 78 80 76 73 74 70 72 77 95
75 75 81 83 81 81 78 79 77 75 78 82 94 96 100 99 99 92 88 78 79 77 78 78 79 78 79
83 83 85 87 85 87 82 82 82 71 76 80 85 95 95 96 100 92 84 98 75 72 78 84 85 86 84
86 88 91 90 86 86 88 89 95 87 76 74 83 89 90 92 93 82 79 79 73 81 91 93 81 80 81
90 97 95 92 89 88 94 95 94 88 86 83 85 87 80 82 95 91 82 85 82 91 100 100 97 91 91
96 96 94 94 97 95 94 95 92 91 87 87 94 100 98 100 74 93 96 94 99 93 92 100 100 92 83

GFSFLT2_850_rhum_030.txt.gz
RH
31 29 31 28 24 23 27 28 25 22 22 28 56 98 99 100 100 100 100 100 100 100 100 100 100 99 99
34 34 35 31 36 45 40 37 32 26 33 44 50 54 70 94 100 100 100 100 100 100 100 100 100 100 97
41 45 49 49 57 53 54 33 29 38 47 48 49 51 51 71 99 99 99 96 97 98 98 97 96 97 99
53 60 77 68 72 65 60 49 54 51 47 53 52 53 52 54 57 57 57 59 90 99 100 99 100 100 100
66 93 89 74 74 77 73 71 65 49 49 53 54 51 49 53 54 55 56 56 57 98 100 100 100 98 99
93 94 83 82 85 77 90 92 94 58 66 69 62 54 55 59 58 57 57 55 59 98 100 100 100 100 100
96 84 93 80 89 97 96 88 83 66 73 73 64 58 59 60 59 57 54 55 57 59 82 100 100 100 100
79 79 89 97 100 99 89 85 84 69 75 84 60 66 66 61 58 56 58 61 64 66 97 100 100 98 99
69 77 73 65 67 74 75 85 82 74 77 86 71 81 72 63 61 65 68 70 70 69 70 80 100 100 100
48 48 58 65 72 79 85 91 96 94 87 97 81 86 98 83 78 74 67 65 65 67 71 75 88 100 100
47 60 64 69 72 76 83 90 96 93 79 100 91 92 100 98 79 71 70 68 68 67 69 74 80 90 100
68 70 70 72 75 78 83 84 88 88 80 89 96 94 99 94 88 74 77 74 74 74 75 72 74 78 86
76 74 78 81 81 81 79 82 79 78 81 84 90 92 98 100 99 85 87 71 79 76 74 76 76 79 80
83 82 83 84 83 88 88 90 84 72 77 81 85 96 95 92 95 86 78 97 71 72 77 81 84 85 83
87 87 88 88 86 90 94 94 96 87 74 73 80 85 85 82 92 80 79 79 75 78 92 91 82 79 75
89 92 92 91 90 90 99 95 90 85 83 81 82 83 77 73 81 92 84 80 80 92 100 100 90 79 83
91 94 94 94 97 98 90 89 87 86 83 84 87 98 98 99 74 93 97 94 96 87 88 95 100 91 84

GFSFLT2_850_rhum_033.txt.gz
RH
43 34 22 24 23 23 23 22 20 14 14 18 22 47 90 98 97 98 98 100 100 100 100 99 100 100 98
31 23 26 23 25 23 27 24 26 18 17 24 40 44 45 47 57 98 100 100 97 98 100 98 99 100 99
30 30 30 26 28 34 38 34 23 17 30 44 45 47 45 46 73 83 71 81 86 96 98 99 98 96 95
41 45 45 38 48 55 52 40 30 31 47 46 48 48 46 51 53 52 52 52 52 53 93 99 100 100 100
51 54 67 67 85 79 72 59 54 49 46 49 49 46 45 49 50 52 53 53 54 58 96 100 100 100 100
70 68 88 74 77 74 74 94 100 52 63 80 58 49 50 54 53 52 52 53 54 59 97 100 100 99 99
89 77 95 92 76 85 93 96 86 61 81 94 60 59 58 55 52 54 53 53 56 59 64 98 100 100 100
87 89 73 74 100 100 88 97 94 69 79 97 59 67 63 56 52 52 56 60 62 62 80 100 100 100 99
60 54 67 64 67 76 78 89 91 78 79 89 68 84 68 56 55 58 61 64 65 67 69 72 94 100 99
41 43 52 66 74 81 86 88 94 93 78 95 79 83 100 64 70 70 63 62 63 66 68 70 75 100 100
42 58 69 72 74 79 85 90 91 86 78 100 89 83 99 99 66 68 74 68 67 66 70 74 78 80 94
67 69 70 73 75 79 81 83 87 87 80 94 95 92 98 95 92 74 71 70 74 71 72 70 71 75 82
74 74 76 76 77 78 80 82 78 76 80 82 85 87 94 100 100 88 82 66 69 71 70 72 75 79 79
78 80 80 80 82 86 83 82 74 67 73 76 81 90 90 90 100 81 75 96 74 70 79 79 83 82 78
87 86 85 85 83 86 85 81 82 78 72 73 81 82 82 88 87 74 84 85 76 84 95 86 77 79 78
89 88 87 86 83 83 86 86 84 79 79 81 79 80 79 78 88 80 87 98 83 87 97 100 94 79 84
91 90 91 90 87 88 93 95 87 84 83 90 90 100 100 99 87 98 94 85 97 87 83 92 96 75 83

GFSFLT2_850_rhum_036.txt.gz
RH
74 62 80 94 78 26 26 28 20 14 13 15 14 13 23 65 72 83 97 98 100 99 100 100 99 100 100
97 97 96 94 70 26 25 18 18 14 16 15 15 24 34 36 39 45 95 98 100 100 100 99 98 96 96
99 97 72 30 27 23 29 35 26 16 16 16 30 38 38 40 42 48 67 57 70 82 92 97 100 100 100
94 56 38 35 29 43 66 81 77 22 25 40 41 39 40 41 42 42 44 47 48 49 51 69 88 98 100
44 42 64 90 84 86 90 85 80 32 52 72 75 51 49 45 43 42 46 50 52 52 54 74 96 98 100
70 92 83 85 89 89 92 94 94 47 90 93 82 74 56 48 45 48 50 52 53 55 67 97 100 100 100
97 90 90 92 99 86 98 100 100 81 100 96 66 77 63 54 49 49 51 52 53 54 58 78 100 100 100
86 98 98 97 96 98 98 100 100 95 96 97 75 90 85 66 53 51 52 55 57 58 60 79 98 100 100
66 54 49 54 63 93 86 100 100 96 94 98 80 92 91 60 56 60 58 59 61 64 66 69 74 95 100
94 73 39 43 61 71 80 90 98 100 95 91 90 99 100 67 73 74 66 68 68 66 63 65 69 96 100
38 45 64 68 72 78 80 86 88 86 78 100 86 87 100 100 76 72 67 60 72 70 70 70 73 90 98
52 72 80 75 77 79 83 86 87 81 78 93 97 90 93 93 90 67 66 60 64 61 67 70 71 73 77
73 74 77 77 78 79 78 80 80 75 75 79 85 86 94 96 95 76 90 62 61 67 75 77 82 86 85
78 76 78 78 77 81 82 83 80 72 80 76 77 87 87 85 94 79 82 100 72 74 81 81 85 86 84
82 82 82 82 80 84 84 85 85 80 73 74 82 87 87 90 87 74 77 83 93 86 100 100 93 99 100
89 90 89 89 86 86 87 93 96 87 84 76 80 91 90 90 98 80 87 91 81 98 100 100 99 98 100
92 92 93 91 92 88 88 92 90 92 90 88 100 100 100 100 95 99 98 83 87 90 89 100 100 87 96

GFSFLT2_850_rhum_039.txt.gz
RH
85 64 51 70 85 91 97 97 91 52 19 10 7 8 8 8 9 16 47 85 97 99 100 100 99 97 99
77 86 99 99 98 100 98 63 29 24 12 7 10 14 12 16 25 29 36 76 93 98 98 99 100 100 99
98 99 100 100 100 94 77 35 20 16 17 19 34 23 24 33 36 36 44 55 60 74 81 83 92 98 98
100 99 98 96 79 34 26 36 40 34 34 38 32 35 36 38 40 40 41 42 42 46 50 57 66 71 90
99 96 63 55 49 66 82 74 61 45 35 40 64 62 50 46 43 45 45 46 50 53 55 66 88 95 99
50 36 60 82 82 86 86 80 72 34 67 54 63 57 51 47 47 50 52 55 53 54 58 89 96 96 100
66 88 91 86 87 84 74 73 67 42 82 65 57 57 52 48 51 52 53 53 54 55 56 67 98 100 100
74 82 87 93 92 91 88 82 72 69 94 96 61 66 57 50 50 54 51 54 58 59 61 66 97 100 100
69 55 48 39 37 48 43 61 65 72 72 88 65 75 60 51 52 55 60 61 62 60 60 62 67 95 100
65 82 71 35 36 47 58 66 86 99 92 84 74 84 94 63 63 67 60 57 63 62 61 67 73 100 100
60 50 51 66 73 76 77 80 81 80 70 98 83 86 98 100 67 54 61 60 66 65 66 70 68 88 100
41 54 74 78 77 74 74 77 80 79 80 91 95 85 88 89 84 64 64 62 63 60 62 67 73 77 85
65 80 82 76 76 78 76 77 76 75 75 79 86 84 91 93 96 73 75 59 57 63 64 71 72 79 90
76 77 77 78 78 81 81 80 81 75 78 84 85 94 99 100 100 88 74 100 68 68 74 80 75 80 89
78 77 80 84 84 87 87 89 91 82 77 87 96 98 100 100 100 86 82 83 87 94 100 100 99 94 95
84 87 88 88 88 87 88 90 88 87 87 87 98 100 99 97 100 91 92 90 86 96 100 100 98 91 98
87 87 89 88 89 88 87 89 89 92 91 93 99 100 100 100 91 97 92 93 91 89 88 95 100 85 92

GFSFLT2_850_rhum_042.txt.gz
RH
100 98 97 96 78 84 67 75 98 98 95 94 44 31 22 14 8 8 7 25 71 92 97 100 100 100 98
99 99 95 95 84 83 99 100 99 99 94 66 24 15 14 16 20 15 26 30 71 87 97 99 100 100 100
99 100 99 98 99 100 100 100 95 75 36 27 42 27 21 24 35 43 43 38 66 80 81 94 96 96 96
100 100 100 100 99 99 80 39 30 24 32 38 27 21 21 41 51 57 47 44 49 67 84 88 82 73 84
99 99 98 94 66 40 38 44 51 32 42 22 26 34 38 46 48 48 49 53 82 92 97 99 100 100 100
99 96 53 50 63 76 77 74 52 27 45 21 48 43 47 51 51 50 60 85 95 98 99 98 100 100 100
32 54 71 85 81 79 75 68 44 39 60 41 55 52 53 51 51 52 54 56 67 63 64 76 89 97 100
52 48 53 54 64 67 56 44 40 39 65 61 54 53 50 49 52 52 53 57 60 61 62 67 86 100 100
76 60 45 37 40 39 33 41 37 51 58 68 60 59 51 45 50 54 56 57 61 61 62 81 98 99 100
64 43 45 36 36 54 52 61 67 73 81 76 68 78 71 48 48 52 51 54 59 60 58 60 94 100 96
33 33 36 47 67 72 73 75 74 77 72 91 71 73 88 84 46 47 53 56 57 55 51 59 64 75 100
34 39 57 66 70 76 75 76 77 75 74 84 82 78 85 86 81 52 53 55 58 55 54 60 67 69 74
46 64 71 72 71 74 77 74 72 70 72 76 81 80 89 97 97 68 79 57 59 66 62 66 69 70 69
68 69 70 74 77 80 81 82 83 73 76 77 82 91 91 100 100 93 72 94 72 69 78 78 71 73 73
70 70 74 77 79 83 85 88 96 83 72 71 78 96 100 100 100 94 78 74 76 79 81 81 73 70 76
75 79 80 82 82 84 88 91 92 88 86 84 93 100 100 98 99 87 83 88 82 85 86 93 88 77 79
79 79 82 86 92 92 92 94 91 92 90 95 100 100 100 100 83 96 98 95 91 92 79 83 87 77 76

GFSFLT2_850_rhum_045.txt.gz
RH
100 100 98 98 99 99 100 100 94 96 93 96 100 99 72 52 42 18 14 14 43 84 96 96 99 100 100
100 99 100 100 100 99 99 93 97 99 100 100 99 95 55 39 34 50 30 42 65 94 97 100 100 100 99
100 100 100 100 100 99 100 98 100 100 100 99 79 41 32 22 22 50 84 70 78 91 99 100 100 99 100
100 100 100 99 99 100 99 100 99 76 51 42 34 33 22 19 41 52 50 45 47 57 80 89 93 92 95
99 100 100 100 100 99 92 59 42 42 43 26 26 24 22 31 43 46 46 48 49 59 90 99 99 100 100
100 100 100 98 76 54 50 48 52 51 53 22 37 29 43 46 49 49 49 52 70 95 95 95 100 100 100
85 64 54 55 56 63 68 68 70 52 47 21 38 44 50 49 52 54 56 58 66 71 79 88 95 98 100
46 53 53 60 65 64 60 58 50 38 44 45 45 50 53 54 53 52 58 62 64 65 63 60 60 81 98
75 69 67 69 86 66 52 48 40 42 58 67 67 57 50 47 51 56 57 56 55 56 58 58 58 59 63
91 85 56 43 54 51 50 62 76 74 74 72 70 68 57 50 53 54 53 54 55 57 57 56 48 49 52
38 31 38 40 52 70 73 73 72 74 78 88 80 81 90 66 51 47 51 52 54 54 57 59 56 58 62
30 34 43 58 66 71 74 75 78 76 75 81 79 80 92 93 69 51 54 54 56 54 57 60 62 64 71
41 57 68 68 69 70 72 74 75 74 75 79 82 84 94 97 85 64 64 52 58 58 60 62 64 64 60
68 70 71 72 74 77 76 76 72 67 74 78 84 91 90 89 100 83 70 86 59 62 68 64 65 65 63
74 74 75 77 78 79 79 77 78 75 72 76 80 92 100 100 100 97 76 75 75 71 76 72 64 62 63
75 79 79 78 78 79 82 84 83 82 81 83 88 94 95 86 89 83 84 82 80 82 88 96 73 65 68
75 77 78 78 80 79 80 86 87 88 85 86 90 97 99 95 80 85 94 86 89 84 84 90 84 71 73

GFSFLT2_850_rhum_048.txt.gz
RH
98 88 96 100 100 100 100 100 100 98 100 98 99 99 100 100 100 99 86 72 68 59 93 96 95 93 97
99 99 98 100 100 100 100 99 100 100 100 100 98 99 100 100 98 97 87 56 52 50 86 96 95 97 100
98 100 100 100 100 100 100 99 100 100 99 99 99 99 97 92 81 62 64 77 92 90 97 100 100 99 98
100 100 100 99 100 100 99 100 99 99 99 98 72 54 45 41 35 28 37 27 38 58 78 87 95 98 98
99 100 100 100 100 100 100 98 98 95 65 52 45 38 28 24 20 22 26 36 43 46 56 96 100 100 100
100 100 100 100 99 98 94 68 63 60 57 39 50 24 19 29 36 40 45 50 53 74 84 94 100 100 100
97 94 86 66 64 70 64 70 69 69 67 27 23 22 43 49 52 52 52 55 56 60 66 71 80 94 100
37 47 53 55 58 59 63 66 62 57 56 29 32 44 51 55 54 53 56 57 58 57 55 54 54 53 51
52 66 71 68 66 58 61 64 45 29 48 54 50 51 48 46 46 49 57 59 57 57 56 56 56 55 51
61 65 68 54 39 48 58 49 63 63 65 69 61 62 54 54 57 61 60 61 60 60 59 57 57 56 47
29 30 30 36 40 46 63 75 80 80 79 88 80 79 74 60 53 59 59 56 59 59 62 60 60 63 58
30 35 38 46 61 71 76 80 82 81 84 89 90 90 96 77 65 51 54 54 56 54 57 58 61 64 67
36 46 61 70 70 72 73 75 78 78 82 86 85 97 100 100 82 59 67 50 55 52 58 60 59 59 58
62 69 72 73 71 74 74 76 77 77 84 88 90 100 100 100 100 71 65 73 56 60 61 56 57 58 58
65 70 72 76 76 79 79 78 81 78 77 82 90 94 94 94 93 82 72 71 70 68 73 71 63 62 62
72 74 76 77 76 76 76 78 77 77 79 80 85 87 84 79 80 77 77 75 72 79 82 84 72 62 67
65 71 74 76 76 72 71 72 72 74 78 81 82 85 91 91 81 80 84 83 86 84 82 83 79 62 68

GFSFLT2_850_rhum_051.txt.gz
RH
98 98 98 99 100 99 100 100 100 100 99 100 100 100 100 99 100 99 98 100 98 98 98 98 99 99 96
98 100 100 100 99 99 100 100 100 100 100 100 99 100 98 99 100 99 99 100 99 96 84 84 97 96 97
99 99 99 100 99 100 100 100 99 100 100 99 100 97 93 98 99 98 99 93 62 75 97 97 96 97 99
99 100 100 100 99 99 99 100 99 98 97 98 97 95 96 95 88 61 43 37 30 39 52 71 74 85 96
98 99 99 99 98 99 99 98 98 98 97 94 86 68 53 49 35 25 22 21 27 38 43 46 72 96 96
99 99 99 97 97 97 98 97 85 78 57 48 48 39 34 29 19 15 21 29 33 44 71 99 100 100 99
91 92 90 77 69 60 58 59 58 55 51 28 29 25 19 17 22 35 44 49 53 58 74 94 98 99 98
25 32 40 46 51 52 51 51 50 46 45 25 16 20 42 46 50 52 54 56 58 58 59 64 66 59 55
51 65 67 67 72 58 47 37 40 31 40 53 50 55 53 51 51 51 55 56 58 62 60 59 57 55 53
52 58 58 52 50 42 43 49 55 61 66 71 70 70 60 58 63 67 65 68 68 66 64 62 62 57 51
24 24 26 29 35 39 44 61 72 75 77 85 82 83 96 70 54 63 70 70 64 58 60 61 61 61 54
26 29 32 35 44 57 66 68 71 71 74 83 83 83 91 85 76 50 54 57 58 56 55 56 59 59 65
33 37 46 57 63 65 67 68 69 72 77 82 84 87 100 91 76 62 67 53 55 52 54 58 60 62 62
49 59 66 68 67 68 69 73 72 74 85 86 87 92 92 91 93 69 70 82 66 68 70 67 62 57 56
43 51 64 69 72 76 77 76 76 73 72 80 91 95 95 94 90 79 73 70 69 69 74 74 70 67 65
43 56 65 67 68 71 74 75 73 70 70 72 78 88 85 78 81 79 78 77 73 76 77 78 72 66 65
38 45 52 58 64 67 65 63 61 61 63 68 78 90 96 94 82 83 84 79 84 80 74 72 70 59 57

GFSFLT2_850_rhum_054.txt.gz
RH
91 89 86 90 94 93 98 98 92 99 100 100 100 100 100 99 100 100 100 99 99 98 98 98 99 98 99
87 86 90 88 94 98 98 99 99 100 99 99 100 99 99 100 100 99 99 99 99 99 98 99 98 98 99
100 96 90 99 98 98 98 100 100 100 100 100 99 98 99 99 98 98 99 99 99 99 100 83 76 97 99
95 94 94 98 99 99 100 100 98 98 96 97 98 99 100 98 98 98 98 98 89 71 43 46 42 62 91
99 99 99 99 99 99 99 99 98 97 97 99 98 97 94 86 76 58 45 34 27 24 26 53 44 44 55
97 98 97 97 96 95 92 89 84 79 73 62 53 45 44 42 32 26 22 19 18 20 24 28 52 93 99
34 40 48 48 48 43 43 42 42 41 39 25 28 24 24 18 16 16 18 28 41 50 71 97 100 100 100
25 32 40 47 47 46 46 43 38 33 34 22 19 19 30 40 37 38 42 49 54 57 77 90 99 100 96
30 43 56 69 68 48 47 40 27 26 34 50 55 52 49 48 48 49 49 52 53 53 56 60 60 57 53
32 28 25 27 29 28 30 34 37 51 64 68 62 63 58 55 57 58 58 59 59 57 62 61 57 53 50
22 22 23 25 28 31 35 44 58 66 73 74 74 73 80 74 55 58 61 60 64 65 61 62 59 60 58
24 25 26 30 39 52 62 65 66 67 73 77 81 80 86 84 69 58 59 61 64 59 64 65 61 62 63
28 31 39 48 55 60 63 64 64 68 75 80 83 84 86 85 80 68 70 63 64 58 60 62 63 66 65
28 34 43 50 56 59 60 65 64 69 83 88 88 87 84 83 84 74 72 78 70 70 71 69 68 69 66
28 33 42 52 58 61 62 64 67 66 66 71 78 80 81 82 82 78 74 72 72 72 77 75 70 68 67
27 30 37 45 51 57 63 65 66 63 61 60 62 66 71 73 80 76 75 75 72 75 78 79 71 65 62
27 28 30 34 39 43 47 50 50 50 52 55 61 78 94 90 77 84 81 77 73 69 72 74 71 67 67

GFSFLT2_850_rhum_057.txt.gz
RH
92 86 88 86 81 87 90 87 87 88 98 100 100 100 100 99 99 99 99 97 98 99 99 99 99 98 98
92 89 92 86 81 86 88 89 96 96 100 100 100 100 100 98 94 95 98 98 99 100 99 99 99 99 99
91 92 87 86 92 88 85 88 88 91 97 98 96 91 97 96 99 100 100 99 100 100 97 98 99 99 98
89 89 90 92 92 91 93 92 90 91 93 92 92 93 95 95 99 99 99 100 99 98 98 99 94 59 74
99 99 98 95 93 91 90 90 90 90 90 90 90 92 96 98 97 99 99 99 92 78 53 39 32 54 75
81 82 82 85 83 78 69 61 55 46 46 41 36 36 38 35 32 28 28 27 27 25 20 18 23 51 52
15 18 20 22 23 26 28 29 32 31 24 17 17 16 18 16 14 15 16 16 17 19 27 40 60 90 100
17 21 23 26 32 33 34 33 29 23 21 18 21 31 41 40 39 38 39 39 44 48 59 92 100 100 100
18 19 22 25 24 29 30 26 23 25 36 50 50 48 48 49 50 50 50 51 54 58 66 67 73 74 65
20 19 18 19 20 21 24 28 30 49 57 60 58 60 60 58 59 58 57 57 57 58 59 60 66 65 58
18 18 19 21 23 24 30 43 53 61 63 68 68 69 74 68 55 58 59 60 60 57 59 64 67 64 57
20 21 23 25 34 44 52 56 59 62 69 68 70 75 81 74 65 64 64 65 66 64 61 60 64 65 63
22 25 32 41 49 54 57 58 59 62 68 74 76 78 81 81 73 70 67 63 65 65 70 70 69 65 58
22 24 30 39 48 56 58 58 58 65 73 78 76 75 73 73 71 64 68 72 69 71 71 66 65 66 66
21 23 27 35 42 48 53 54 55 56 61 68 67 64 63 64 64 64 67 72 72 71 74 69 66 67 68
23 23 25 28 31 35 40 43 45 47 49 51 52 55 58 61 70 71 72 72 75 75 73 71 61 58 59
24 26 26 28 29 31 34 36 38 41 43 46 51 63 83 92 79 79 75 74 77 75 75 73 70 61 65

GFSFLT2_850_rhum_060.txt.gz
RH
98 90 88 86 88 85 79 86 90 87 86 93 98 99 100 99 99 100 99 98 97 96 98 98 90 96 98
88 90 92 86 83 83 83 82 82 87 90 100 100 99 100 100 99 98 94 97 98 100 93 87 98 100 98
91 92 90 85 85 86 86 84 81 82 84 88 94 98 98 95 97 94 91 82 84 82 90 90 97 98 99
96 94 91 89 89 87 88 89 87 86 85 86 87 88 90 86 86 85 86 91 96 98 99 98 97 94 96
97 96 95 91 89 85 84 81 76 77 79 81 82 82 84 86 88 89 89 90 92 94 95 97 96 91 67
64 74 68 61 45 36 26 22 44 21 18 17 15 15 15 15 19 25 32 41 48 52 47 36 28 25 25
13 17 22 20 21 23 26 26 36 30 17 15 16 14 13 12 11 11 12 12 14 15 17 18 20 26 46
15 18 20 21 24 28 28 24 24 35 16 27 36 39 39 38 34 33 33 33 32 34 38 43 80 100 100
16 16 16 17 18 22 26 27 41 48 31 43 53 45 47 49 48 47 47 46 46 47 51 77 91 100 100
19 19 18 17 17 19 20 23 28 54 46 50 50 52 59 62 53 53 53 51 52 53 54 52 53 57 68
18 18 18 18 19 22 28 39 47 53 53 57 56 58 65 63 54 57 58 60 61 58 53 52 55 59 63
20 20 20 21 27 37 44 49 53 56 59 58 61 66 71 67 66 66 63 62 63 65 65 62 59 57 61
20 20 22 27 36 42 46 50 54 56 60 64 66 70 73 70 65 64 62 61 63 65 69 67 65 66 64
20 20 21 26 34 41 47 51 51 53 58 65 70 70 67 63 60 56 58 62 62 67 70 66 65 66 65
19 20 21 23 27 32 36 40 44 48 67 71 63 62 57 54 54 54 56 64 71 71 73 69 65 64 63
19 20 22 23 25 27 29 32 36 38 42 49 55 53 50 51 56 61 71 74 76 76 76 76 68 65 66
21 22 24 25 27 29 31 33 34 36 38 42 46 54 64 83 77 80 80 76 79 79 78 76 76 68 70

GFSFLT2_850_rhum_063.txt.gz
RH
94 94 93 92 89 86 83 81 80 87 85 89 99 99 99 100 100 98 100 100 99 98 98 98 99 97 94
96 89 90 88 86 83 79 80 80 83 86 86 100 98 100 100 100 99 100 98 94 90 86 82 82 88 98
87 89 89 85 84 80 81 83 84 85 83 83 88 96 93 93 94 97 94 86 87 88 84 78 82 87 99
93 97 91 86 83 81 84 83 84 85 85 85 84 86 86 85 87 85 83 83 84 81 80 81 81 82 86
98 98 91 80 73 75 74 67 67 46 59 72 77 80 79 79 82 82 83 84 84 86 92 93 90 88 90
63 93 92 68 57 34 26 18 34 35 22 14 12 12 13 13 12 14 16 26 43 58 69 77 82 79 68
19 27 32 27 24 25 28 26 34 35 17 11 15 12 11 12 10 10 10 10 10 11 12 14 15 16 17
13 12 14 17 21 21 22 19 22 52 25 17 28 30 32 33 31 30 30 29 29 28 24 24 24 25 61
12 11 12 12 15 17 16 20 22 51 30 37 42 37 38 41 40 41 43 43 42 40 40 40 39 59 85
14 13 13 13 13 14 17 18 22 41 53 46 43 44 43 58 46 46 47 48 48 48 47 48 50 47 46
16 15 14 14 14 17 21 28 37 42 42 48 45 48 50 48 44 52 53 56 56 55 55 54 52 50 49
16 18 18 17 17 23 32 39 42 45 49 47 50 53 56 53 50 57 57 56 57 55 59 59 59 61 60
17 16 16 17 21 27 33 37 42 46 49 52 53 56 59 57 53 49 53 51 56 58 63 62 62 63 62
17 18 17 18 21 27 32 38 39 42 43 49 54 58 58 58 57 47 49 54 53 56 65 67 64 64 64
18 18 19 21 22 24 26 29 32 34 42 50 48 49 49 47 46 46 48 52 58 65 73 71 64 64 65
18 19 21 22 23 24 25 27 28 31 37 46 64 63 51 44 48 50 59 68 72 76 78 82 70 64 67
19 20 22 23 25 25 27 29 30 33 36 42 51 64 74 60 58 78 81 81 84 79 79 81 81 71 72

GFSFLT2_850_rhum_066.txt.gz
RH
100 100 99 97 94 94 87 82 78 79 83 86 96 99 98 98 98 96 96 100 100 100 100 99 99 97 97
100 97 93 94 90 88 82 78 81 82 83 84 86 99 98 97 98 100 100 100 100 99 97 91 89 87 86
91 91 87 87 86 85 79 79 80 84 85 84 84 90 97 94 89 87 84 84 90 86 86 86 88 85 79
83 95 94 81 80 78 79 78 76 80 80 78 82 84 87 87 85 83 84 85 84 82 83 87 83 79 78
79 92 72 52 50 50 57 55 40 27 24 27 32 47 58 66 72 75 78 80 80 81 82 84 86 84 82
43 34 48 43 21 18 18 14 14 15 16 20 12 11 12 12 10 9 9 10 11 15 26 40 51 60 69
16 20 26 23 21 18 16 16 14 15 11 12 10 15 12 14 15 18 16 13 12 11 9 9 10 12 13
13 15 16 16 15 15 16 14 15 15 17 13 17 22 26 27 29 29 30 31 30 28 28 25 23 22 20
12 13 12 12 12 11 11 12 11 20 22 30 28 29 31 32 36 38 38 39 39 38 37 38 38 40 39
16 14 12 12 11 10 11 12 14 23 39 39 35 37 36 36 41 41 42 44 45 45 48 46 45 44 43
14 12 13 13 12 13 15 20 27 34 35 40 42 42 42 39 38 44 45 48 50 50 51 53 55 55 51
14 15 15 14 14 16 22 29 34 38 43 44 45 46 46 41 38 44 47 50 48 48 51 54 56 57 59
15 16 15 16 17 17 22 28 34 39 43 44 43 44 47 46 44 40 39 40 48 52 54 54 53 56 59
15 16 18 16 16 17 19 23 26 30 33 37 40 43 45 48 51 40 42 47 46 48 53 54 58 60 59
16 16 17 18 17 18 19 21 22 24 26 29 33 36 36 40 40 40 42 44 51 59 66 68 62 62 63
16 17 18 18 18 20 21 22 24 25 28 31 35 40 40 41 48 45 50 56 66 75 79 88 74 63 69
17 18 19 19 20 22 24 26 27 30 34 38 42 50 57 57 55 67 74 69 73 74 79 81 80 64 64

GFSFLT2_850_rhum_069.txt.gz
RH
99 98 94 100 100 96 90 83 79 80 79 81 93 99 98 98 99 95 95 93 98 97 92 95 94 100 100
100 100 100 99 98 94 86 85 78 81 81 79 84 86 94 98 96 97 96 97 100 100 100 99 99 97 93
97 99 99 98 91 88 87 84 79 80 84 80 82 82 80 89 93 88 87 84 82 83 94 88 85 86 86
89 96 96 93 88 86 83 83 80 77 74 69 70 74 80 80 84 84 83 84 85 85 85 85 83 85 86
81 88 80 63 50 59 65 59 49 34 26 20 17 18 20 26 48 70 75 78 80 81 80 79 79 80 80
68 50 36 40 39 31 18 16 14 13 15 19 14 12 12 11 10 8 7 7 8 9 11 12 16 21 29
15 23 22 24 29 17 13 12 13 13 11 12 10 11 14 16 17 21 19 17 15 14 12 10 9 10 11
12 14 14 16 19 14 14 14 14 12 15 14 15 22 27 28 30 31 29 31 32 32 30 29 27 26 25
10 10 10 11 10 10 11 11 12 13 22 25 26 28 30 32 35 36 35 37 38 39 39 38 38 37 36
14 13 12 12 10 10 11 12 13 17 30 35 31 32 36 36 41 38 39 41 43 45 47 48 48 46 44
13 12 13 12 12 12 14 16 21 28 30 36 36 38 38 37 37 39 40 46 48 49 49 50 51 52 50
13 14 13 12 12 14 16 20 26 32 35 39 39 40 40 36 36 39 43 46 44 42 44 48 53 54 56
15 15 13 12 12 14 16 20 25 30 36 41 43 41 39 39 39 36 35 39 41 47 51 50 48 50 51
16 16 16 16 16 15 15 17 19 27 30 31 33 33 35 36 36 35 37 40 42 44 46 45 48 52 52
15 16 16 16 16 17 18 19 20 21 24 27 28 31 33 34 34 36 39 42 44 50 57 58 56 61 60
16 17 17 17 18 19 20 20 21 23 26 29 32 34 37 40 44 44 47 51 57 62 67 74 60 52 57
17 18 18 19 20 22 23 24 26 28 31 35 40 45 51 58 54 60 52 55 62 63 68 70 66 44 48

GFSFLT2_850_rhum_072.txt.gz
RH
99 100 100 100 96 98 99 87 84 80 83 82 85 100 98 99 99 99 98 94 92 99 97 100 99 96 90
100 100 99 98 98 100 86 84 82 76 81 83 88 95 97 99 99 98 94 93 91 92 78 79 80 85 93
99 100 98 99 98 91 88 86 83 77 76 78 82 87 87 90 94 94 93 88 85 82 85 91 98 94 92
100 100 100 99 89 86 85 85 81 82 81 75 71 73 76 82 84 92 88 86 84 84 81 78 78 80 83
95 97 99 88 68 68 79 75 72 58 51 33 23 19 18 29 49 69 78 83 85 86 87 88 86 83 81
81 80 68 43 37 39 32 28 20 16 23 22 18 14 12 13 12 10 9 8 10 16 24 30 36 44 52
22 34 30 33 35 27 21 18 16 15 16 14 13 13 15 15 16 21 19 17 14 12 12 10 8 8 8
10 16 18 22 23 20 16 16 16 16 14 15 14 19 23 28 28 30 26 28 29 30 30 28 26 25 24
10 10 12 12 13 13 12 12 11 12 16 19 23 27 29 31 33 32 31 32 35 36 36 35 35 34 35
16 15 13 13 12 11 11 11 10 11 16 26 30 31 33 35 39 37 36 37 40 41 42 43 43 42 43
15 14 14 14 14 13 14 14 14 19 27 30 30 34 36 37 37 36 37 39 45 46 45 44 43 43 43
14 14 15 16 17 16 16 18 21 26 30 32 34 36 38 36 37 37 39 43 43 43 41 42 42 42 45
15 15 15 16 15 16 16 18 21 25 29 32 36 36 36 35 36 35 35 42 41 39 43 49 49 49 47
15 15 15 17 18 17 16 18 18 20 23 28 29 28 28 29 31 31 34 36 42 42 40 39 40 44 45
14 15 16 16 17 18 18 19 19 22 26 27 25 26 28 30 30 31 35 37 42 45 46 42 43 52 56
15 14 15 16 15 17 19 19 20 22 24 26 28 29 31 33 38 41 42 43 51 52 60 64 44 46 52
22 19 17 17 16 18 20 22 23 26 28 30 33 38 44 52 53 55 48 47 50 53 60 61 53 34 38

GFSFLT2_850_rhum_075.txt.gz
RH
99 99 100 100 100 100 100 99 96 83 79 76 78 74 98 98 97 98 99 97 95 99 99 98 99 100 99
100 100 100 100 100 100 99 98 87 84 83 79 81 85 82 96 98 98 98 95 92 100 100 100 98 100 100
100 100 99 100 99 98 98 86 87 86 79 78 81 82 82 88 97 94 93 93 89 90 85 80 82 84 86
98 100 100 98 99 100 88 86 89 87 81 77 73 72 75 77 87 93 94 93 89 87 84 83 80 85 90
99 99 99 100 99 90 77 83 82 81 72 56 42 28 20 29 53 68 78 86 88 86 84 85 85 83 82
100 100 99 98 85 50 47 55 48 26 23 18 18 19 17 16 14 12 11 14 40 68 77 82 85 85 84
84 76 63 52 44 46 39 30 24 17 16 17 14 13 13 15 14 13 13 11 9 8 8 8 7 7 8
10 31 40 33 35 32 28 22 20 16 16 15 15 13 16 21 24 24 24 22 22 25 24 23 20 18 16
12 14 21 17 18 18 18 17 14 13 15 18 19 21 25 28 29 30 28 29 31 33 33 32 31 30 31
18 15 14 13 12 12 12 12 11 11 17 22 26 29 31 35 37 37 35 34 34 35 36 38 38 38 37
20 17 16 14 14 14 14 13 12 13 24 36 30 31 34 36 38 40 36 34 35 36 39 41 40 38 36
18 16 14 16 16 15 15 15 15 18 23 28 32 34 35 35 36 34 34 34 39 41 39 38 36 36 36
14 14 15 15 14 13 12 12 14 18 23 27 31 34 36 36 35 34 36 37 36 37 37 38 37 40 44
15 15 15 14 15 15 14 14 15 16 18 22 25 28 29 28 28 28 30 33 35 38 39 39 41 39 37
17 16 16 15 15 17 18 17 17 17 18 20 22 23 24 25 25 27 31 33 38 41 40 37 38 41 43
19 17 17 18 18 17 18 18 20 20 20 22 24 24 25 26 31 34 41 45 52 54 53 48 37 46 52
20 21 22 23 20 18 18 20 21 23 25 26 28 31 35 43 48 54 57 58 54 52 61 61 41 30 35

GFSFLT2_850_rhum_078.txt.gz
RH
92 99 94 100 99 100 100 100 99 99 83 83 78 77 71 99 98 97 98 98 99 99 98 93 86 96 100
100 100 100 100 100 100 100 100 100 92 79 81 79 80 76 92 99 98 97 98 97 98 95 95 97 99 97
96 98 100 100 100 100 99 98 98 91 88 83 76 76 78 84 88 97 96 90 92 93 93 90 96 99 100
99 99 100 100 100 100 98 100 88 90 88 82 73 73 76 77 86 92 93 90 91 85 89 83 78 83 85
97 97 99 100 99 98 99 99 90 91 86 77 68 57 47 42 57 68 77 89 93 91 90 88 86 83 79
98 96 99 99 97 100 99 69 82 74 68 51 30 21 18 17 16 14 13 25 58 79 88 87 86 84 81
99 100 100 100 85 79 55 49 40 28 20 16 17 16 14 14 12 11 11 8 8 8 10 26 44 54 60
27 44 45 76 40 44 51 38 27 23 20 16 14 15 15 16 17 18 22 20 19 18 17 14 12 10 9
14 16 18 32 29 26 28 24 20 17 17 18 18 16 18 24 26 26 28 26 27 29 30 29 27 27 27
17 16 15 13 12 12 12 13 12 11 12 19 21 25 29 29 30 32 31 30 31 33 34 36 36 34 34
18 20 18 16 13 13 12 12 10 10 14 20 25 30 31 32 33 35 36 34 32 32 34 37 39 37 36
19 19 16 14 13 14 15 14 13 13 15 19 23 27 30 30 35 33 34 33 33 33 35 38 37 34 33
19 17 16 15 15 14 13 12 13 14 16 19 22 25 27 30 34 35 35 34 35 34 35 36 36 35 35
19 18 16 15 15 14 15 15 16 20 19 17 18 21 25 27 26 26 27 29 31 34 33 32 34 35 36
20 18 17 16 16 17 18 20 20 19 18 18 19 21 22 22 22 24 26 28 32 34 33 31 33 36 36
23 19 17 16 16 17 20 19 20 20 20 20 20 22 23 26 35 42 39 41 50 50 48 44 37 43 43
26 22 20 19 24 25 22 21 25 21 22 24 26 27 29 37 57 64 68 67 69 68 64 57 41 35 34

GFSFLT2_850_rhum_081.txt.gz
RH
99 87 86 99 96 100 100 100 100 100 99 98 76 82 81 73 85 95 95 97 97 98 99 99 77 80 93
96 94 99 100 100 100 100 100 100 100 99 96 83 87 83 82 89 98 96 95 97 96 97 98 99 100 100
93 92 90 97 100 100 100 100 100 99 98 89 89 87 84 80 86 94 95 96 94 95 94 98 98 99 100
98 97 96 96 97 100 100 100 100 99 94 92 90 85 83 83 87 89 89 94 90 91 89 90 99 92 94
100 99 99 99 99 100 99 100 98 99 92 92 87 81 74 68 72 74 78 85 86 86 86 86 85 82 83
99 99 99 99 100 99 100 99 99 73 82 83 77 63 42 27 20 17 18 38 67 85 90 88 87 84 78
99 99 99 99 99 99 98 95 67 54 32 20 19 19 19 20 16 14 12 10 10 12 41 72 85 87 86
43 67 86 79 76 75 60 50 49 35 24 21 16 14 15 16 16 15 16 18 16 14 11 9 9 13 21
14 15 18 29 39 40 38 32 34 21 18 16 15 15 15 17 18 22 24 28 26 25 26 26 22 21 20
17 16 15 17 17 14 19 18 16 13 11 14 14 16 21 22 24 28 29 32 30 33 33 34 31 32 32
19 20 21 19 17 15 13 13 12 11 13 14 15 20 24 26 28 30 32 35 36 35 33 33 34 35 36
20 21 20 16 15 15 14 14 12 12 12 14 25 25 24 26 28 28 30 35 37 35 32 31 32 34 34
17 17 17 16 16 16 14 14 14 14 14 16 21 27 30 28 30 30 32 32 32 32 32 32 33 33 32
19 18 17 16 15 15 15 15 15 17 23 26 21 20 22 24 27 26 24 25 25 27 28 29 30 31 32
24 22 19 18 18 17 17 18 20 19 19 19 18 19 21 22 22 24 30 40 29 28 28 29 30 32 33
25 23 21 19 18 19 21 26 27 26 29 25 22 22 22 23 28 37 56 62 51 48 49 51 48 47 45
26 26 24 22 19 19 26 29 26 27 30 26 24 25 27 31 38 50 67 77 76 82 82 74 61 51 49

GFSFLT2_850_rhum_084.txt.gz
RH
99 99 95 84 86 97 100 99 99 100 99 100 99 92 79 78 78 85 92 91 90 93 93 95 94 75 73
99 98 94 88 99 100 100 100 100 99 100 100 93 87 81 86 87 78 92 94 91 91 98 96 99 87 87
98 92 91 89 92 98 99 100 100 100 100 97 91 82 88 85 86 88 92 95 93 94 92 100 100 98 100
97 96 96 96 96 96 98 99 100 100 99 97 96 88 82 80 84 84 87 89 92 89 88 90 99 100 100
98 99 98 98 97 99 100 100 100 100 96 99 94 92 83 76 73 72 76 79 85 89 87 88 96 95 96
99 99 99 100 99 100 100 100 100 96 100 93 91 90 80 67 45 28 22 27 51 74 83 85 82 86 87
99 99 99 99 99 99 100 99 99 99 62 44 47 44 35 26 21 18 15 13 12 14 45 75 85 86 82
58 90 99 99 99 98 99 99 89 62 46 34 23 19 16 16 16 14 13 14 14 10 10 10 26 58 76
13 15 21 33 54 69 70 69 56 41 30 25 18 16 16 16 16 16 20 22 22 21 20 18 15 12 10
16 15 15 20 29 40 39 44 36 24 16 19 18 15 18 17 20 24 26 26 26 26 28 29 30 30 30
18 18 19 19 21 18 16 18 16 18 12 14 15 17 25 30 30 28 29 30 30 29 29 29 30 33 33
19 20 20 20 19 17 14 14 13 13 13 12 20 27 30 28 30 29 29 34 34 33 32 29 28 29 32
18 20 20 19 16 15 15 15 16 15 14 14 18 23 24 30 31 30 30 31 31 30 30 29 30 31 32
18 20 18 18 16 15 14 14 14 14 16 22 26 27 24 22 25 28 30 28 25 25 25 26 27 28 29
22 21 18 17 16 16 15 15 17 20 22 21 22 20 17 19 21 22 23 24 35 45 45 42 38 32 31
25 25 24 21 19 18 17 20 28 31 30 33 36 29 22 21 22 24 28 40 56 64 63 63 64 60 56
27 26 25 23 20 18 19 22 31 33 30 33 38 33 26 28 31 34 44 51 70 77 79 78 75 74 73

GFSFLT2_850_rhum_087.txt.gz
RH
92 89 93 86 90 87 90 96 99 98 92 98 99 98 93 85 76 74 78 91 91 79 85 87 88 87 82
99 100 98 97 91 88 97 100 100 99 99 100 99 98 84 82 78 85 76 69 89 89 90 93 93 98 85
98 99 99 92 89 85 86 87 96 98 99 100 100 95 87 79 85 86 84 88 94 90 88 91 100 99 96
97 98 98 95 93 91 90 90 90 94 99 99 99 92 93 84 81 83 85 83 88 88 90 90 95 100 100
100 99 95 95 94 94 97 96 99 100 99 100 93 97 94 84 77 72 74 74 81 80 86 86 88 96 99
98 99 98 100 99 95 97 100 99 98 98 94 97 97 89 86 73 58 37 26 33 57 76 81 86 86 90
98 99 99 99 99 98 98 98 100 99 100 92 62 70 71 59 39 24 16 14 13 13 22 58 74 81 83
94 98 99 99 98 99 98 99 99 99 99 87 47 29 22 17 18 20 13 12 13 10 9 10 24 61 79
31 23 29 44 52 83 88 89 93 67 54 48 31 21 18 16 19 17 14 16 20 18 17 14 11 9 10
20 15 15 17 20 40 53 60 64 54 28 28 20 17 19 17 19 18 21 22 24 24 24 28 27 26 24
17 16 18 18 22 25 26 29 29 28 17 13 16 17 19 32 28 23 25 27 28 29 28 29 30 31 30
18 18 18 18 18 17 16 14 13 13 15 11 15 18 23 26 26 26 27 29 31 31 33 32 30 29 29
18 19 19 20 20 18 15 14 13 12 12 11 12 23 25 24 26 31 30 28 28 29 29 29 28 28 29
19 19 20 21 20 16 14 14 13 13 13 13 15 19 27 29 28 27 24 27 25 26 26 25 26 26 26
20 18 20 21 18 16 15 14 14 14 19 25 26 26 27 24 18 20 21 22 22 24 39 54 55 53 53
22 24 23 21 18 17 16 14 16 18 30 36 38 41 43 37 29 22 21 23 29 42 58 68 70 70 70
28 27 27 29 24 20 18 18 20 27 38 41 36 40 43 38 39 29 29 38 44 50 65 73 72 73 73

GFSFLT2_850_rhum_090.txt.gz
RH
81 85 88 89 84 87 89 92 94 94 97 96 84 88 94 93 85 79 74 79 83 86 78 86 87 80 77
91 99 99 98 95 99 89 94 100 98 100 93 98 99 99 92 85 76 79 82 72 76 90 88 100 100 80
99 91 96 95 98 93 88 87 85 87 90 96 99 98 96 87 86 79 83 81 80 92 89 84 97 100 94
99 99 96 99 100 93 90 89 88 86 89 93 98 99 97 85 93 81 81 82 79 84 88 85 84 98 100
100 100 97 99 96 92 92 93 90 91 94 94 96 87 88 97 92 79 74 73 73 77 79 80 85 87 98
86 94 96 99 98 94 95 95 94 96 95 96 91 89 95 94 87 81 66 46 33 41 62 71 74 85 86
86 91 99 100 100 98 98 97 95 98 99 96 90 93 52 71 77 60 28 16 14 14 14 39 62 70 85
97 97 96 98 99 98 98 98 98 99 97 97 97 73 36 25 20 18 15 14 13 14 10 11 20 53 68
95 84 55 64 80 85 96 99 98 97 97 94 63 38 22 17 16 14 14 14 20 20 16 12 9 9 15
71 41 20 19 32 28 44 52 74 74 52 46 40 24 14 14 16 16 17 20 23 24 21 24 22 21 17
61 34 18 18 19 23 32 39 50 49 25 15 15 14 13 22 20 18 21 26 26 26 25 27 28 29 28
41 22 18 17 18 23 30 34 23 38 25 15 10 12 11 14 21 23 25 27 27 28 30 29 28 29 28
29 20 18 19 18 21 19 17 15 15 14 12 11 15 16 18 21 23 27 34 29 26 29 30 30 28 28
24 24 23 19 20 22 18 16 14 14 12 11 11 14 18 20 26 31 32 25 24 24 26 26 26 25 26
26 24 22 21 22 21 19 17 16 15 13 13 14 23 30 29 30 23 18 18 21 23 23 24 46 57 57
25 22 21 20 22 22 20 16 16 14 14 19 26 28 39 45 44 41 26 19 20 22 30 48 64 68 70
29 24 21 22 24 22 20 17 16 16 18 31 39 40 40 45 48 44 27 24 28 37 45 50 57 67 66

GFSFLT2_850_rhum_093.txt.gz
RH
66 70 77 84 86 86 81 80 83 92 89 94 97 90 82 84 87 85 82 75 71 70 76 72 74 99 98
67 78 87 95 99 95 85 86 87 99 99 91 99 90 92 98 97 89 80 73 78 76 74 82 85 99 99
68 76 87 99 99 96 92 94 87 88 88 90 91 92 93 97 96 86 81 84 83 78 78 87 84 94 100
64 78 100 100 100 98 99 92 91 90 90 87 86 89 93 94 92 87 89 83 77 77 74 80 86 84 99
70 83 98 98 99 99 99 93 90 90 88 87 89 88 88 88 88 98 87 76 69 69 72 72 78 85 89
71 82 92 99 99 96 97 94 95 96 92 90 92 88 88 92 94 92 84 72 56 42 44 60 63 81 86
64 64 77 81 95 99 99 97 94 94 96 92 93 90 88 92 59 78 71 40 19 15 14 16 42 62 74
57 56 63 78 89 97 100 99 98 98 97 98 92 95 93 68 31 22 16 15 13 12 11 11 12 36 63
56 64 78 85 87 99 100 100 99 98 99 98 89 74 64 35 21 19 15 14 14 15 12 9 8 9 20
71 78 82 70 44 39 67 64 100 84 65 80 66 49 27 18 17 17 16 12 18 21 19 19 18 15 10
82 83 62 37 27 27 31 33 36 42 44 42 38 33 24 18 16 17 16 19 22 23 25 25 24 26 27
84 77 51 30 19 19 26 32 36 46 53 36 14 11 14 14 22 22 21 22 24 26 27 27 25 26 26
85 78 43 23 18 19 21 26 27 22 29 26 22 11 14 16 17 21 23 26 26 27 29 30 29 28 28
93 72 31 21 18 20 19 17 19 16 14 17 13 12 20 19 22 22 31 40 35 31 27 27 27 27 26
99 72 31 22 21 21 20 20 17 13 13 13 12 12 17 20 27 31 27 21 20 23 24 24 24 27 42
100 74 31 24 23 23 22 19 16 15 16 16 13 14 21 32 38 44 45 35 20 20 21 22 32 56 66
98 80 37 29 31 26 23 19 17 17 17 15 15 25 28 41 45 47 48 33 24 22 23 26 42 56 60

GFSFLT2_850_rhum_096.txt.gz
RH
72 65 66 69 68 76 81 84 79 74 76 80 95 94 91 90 83 83 87 88 83 75 74 74 71 74 88
85 65 64 71 84 89 91 92 83 87 88 100 95 90 89 88 92 93 93 87 78 75 72 70 67 82 84
67 65 66 74 80 90 92 84 81 86 87 88 89 92 90 91 93 92 92 85 78 76 77 68 78 85 92
63 66 68 74 90 87 98 94 87 88 87 88 89 88 86 85 88 94 90 85 83 78 76 72 72 84 86
68 68 70 73 71 84 96 97 81 92 89 89 88 90 90 86 88 84 89 94 85 72 67 68 66 72 81
70 67 64 67 71 84 100 92 92 89 93 92 92 92 91 88 87 92 94 91 80 64 48 36 48 60 78
74 77 70 72 81 84 92 91 95 94 95 94 94 93 92 89 88 92 63 77 63 29 16 14 14 39 64
72 82 81 86 77 80 90 98 99 98 96 98 95 93 89 91 93 78 29 20 14 12 11 11 11 14 41
74 77 70 71 72 84 93 100 100 99 99 98 98 94 93 92 79 41 22 15 12 12 13 10 9 10 13
72 69 68 78 85 92 93 94 100 97 92 87 85 77 78 56 39 23 16 13 12 17 18 16 15 13 11
75 78 84 86 87 84 61 55 60 47 44 59 57 68 57 16 15 17 17 15 15 21 20 21 24 24 26
78 78 81 84 75 47 35 32 27 31 49 42 36 33 36 31 17 16 14 16 20 23 23 25 26 27 28
78 78 80 77 50 32 25 24 29 29 38 54 43 17 13 19 13 20 20 21 22 23 25 28 27 28 28
80 88 93 75 43 26 20 22 30 36 36 38 46 25 13 15 14 18 23 33 40 41 31 28 29 30 29
100 100 99 80 40 24 21 24 27 25 24 26 25 18 15 18 17 23 24 35 34 28 25 26 27 28 26
100 100 100 91 42 26 23 22 24 22 20 17 14 14 14 18 24 26 36 40 34 23 19 23 24 24 32
100 99 99 100 49 30 27 27 26 27 22 18 16 14 14 18 29 42 47 46 41 28 20 21 23 28 50

GFSFLT2_850_rhum_099.txt.gz
RH
100 98 95 88 65 70 70 74 73 74 71 68 73 86 96 88 88 85 84 82 90 88 78 74 71 66 65
92 90 86 82 70 72 81 80 82 81 79 71 70 78 89 90 89 88 84 93 94 85 79 77 75 55 74
88 94 88 73 71 77 76 80 85 83 77 74 70 81 84 89 88 86 93 94 91 85 81 78 72 51 77
100 100 96 76 73 73 77 86 84 81 77 74 79 86 88 89 87 89 91 92 89 86 84 76 69 54 76
100 100 92 71 69 70 79 94 89 81 70 75 77 84 88 86 86 87 86 88 90 90 82 67 57 52 63
100 99 80 65 69 71 77 84 92 79 72 77 82 89 89 89 90 89 90 90 89 82 75 51 36 37 48
98 94 78 70 74 78 73 72 72 86 79 82 88 92 93 93 92 90 89 90 59 67 48 20 15 14 34
99 88 81 84 84 96 94 80 88 96 92 96 92 94 93 96 93 92 90 82 26 16 13 11 11 12 15
96 100 98 99 84 84 82 86 98 92 98 100 95 95 93 95 92 92 87 45 19 12 12 12 10 10 10
95 92 89 83 84 67 70 69 90 100 98 99 97 90 92 83 84 73 52 24 14 12 15 16 12 11 9
99 97 98 93 74 74 81 80 92 100 86 88 77 81 74 19 41 50 32 17 13 14 20 20 21 23 19
100 100 93 81 82 83 84 93 94 100 92 65 55 56 63 63 26 16 19 16 14 20 25 23 25 27 26
89 80 74 80 85 85 92 86 77 78 82 68 50 52 38 46 35 14 16 15 17 23 25 24 26 26 25
91 82 86 93 94 92 85 54 52 56 50 50 60 50 18 12 19 14 22 21 21 24 26 28 31 31 26
99 93 95 97 95 87 61 45 40 45 40 42 53 50 42 22 14 14 20 25 38 35 40 35 31 28 28
100 100 100 100 98 76 49 39 34 34 34 39 38 40 38 21 16 17 23 24 33 30 26 25 24 25 25
98 99 99 99 99 93 54 40 41 39 34 32 26 24 20 18 14 22 24 30 35 35 29 23 20 22 23

GFSFLT2_850_rhum_102.txt.gz
RH
99 98 100 100 100 100 90 86 84 77 69 68 64 61 66 72 95 87 83 87 85 84 86 82 75 72 63
100 100 100 100 100 95 90 87 88 77 75 73 71 64 62 74 84 88 86 87 85 87 87 78 75 72 56
99 100 98 97 96 92 95 91 88 89 83 90 81 73 61 70 90 88 87 88 85 87 85 79 77 69 51
100 99 99 99 100 98 97 90 97 96 99 91 82 70 73 79 82 82 87 86 86 86 83 80 77 62 49
100 100 100 99 96 91 98 90 96 97 95 80 76 70 74 86 86 86 85 85 86 86 84 81 69 52 46
91 97 100 99 100 98 98 100 100 90 87 78 75 66 75 87 89 89 88 88 88 87 72 75 56 38 32
100 100 100 88 95 99 99 88 80 79 72 69 76 78 82 92 93 91 92 89 89 83 49 59 33 17 14
99 98 98 100 97 97 94 90 95 91 96 79 78 86 91 94 94 94 93 92 90 58 22 14 10 10 11
100 100 100 100 100 96 90 99 98 97 94 72 80 91 92 95 95 97 95 92 87 30 14 10 9 8 9
100 100 100 99 96 96 84 99 100 100 84 72 82 91 99 94 96 96 92 89 67 21 12 12 9 8 8
100 100 100 100 94 100 95 100 85 81 73 77 82 99 93 57 88 92 91 78 35 15 14 17 14 12 10
100 100 100 99 98 99 85 96 93 88 85 82 75 88 94 76 23 72 74 49 23 16 16 19 18 19 20
99 99 100 100 100 100 98 91 91 100 100 100 98 53 74 86 55 22 20 29 19 16 18 21 20 21 23
99 100 100 100 100 100 97 91 97 100 100 100 100 66 58 70 71 43 18 17 16 16 21 24 23 24 25
100 98 100 100 100 100 100 100 100 100 97 98 97 82 55 27 20 30 16 18 18 18 22 25 27 31 34
100 100 100 100 100 100 100 99 99 96 90 84 77 70 72 50 19 17 16 25 29 23 32 38 36 36 32
100 99 100 100 99 100 100 99 99 76 76 75 62 60 71 70 35 16 18 24 30 38 36 30 27 25 26

GFSFLT2_850_rhum_105.txt.gz
RH
85 85 94 98 98 100 100 100 100 99 83 73 69 64 66 64 65 79 79 78 75 86 83 81 80 74 70
99 99 90 96 94 100 100 100 100 89 86 81 75 70 73 74 76 82 86 87 81 82 79 83 82 74 72
99 99 100 100 100 100 100 100 98 93 90 84 82 82 82 77 70 69 92 87 82 84 86 85 82 78 72
100 98 99 99 100 100 100 100 92 96 90 85 88 87 90 81 72 77 96 86 77 82 85 83 80 76 70
99 100 100 99 97 95 100 99 100 99 91 93 91 89 86 79 71 82 88 82 84 84 86 81 80 76 58
100 98 99 99 100 99 100 100 100 100 100 98 97 96 86 87 81 81 82 88 85 86 85 79 75 66 46
100 96 100 96 95 100 98 99 95 91 90 96 99 100 93 95 90 90 90 90 90 88 83 69 64 53 28
100 100 99 100 100 98 99 97 100 100 100 98 97 99 94 95 92 86 90 94 94 88 82 42 40 22 15
86 99 100 99 100 100 100 100 100 100 100 99 91 85 80 91 92 97 95 96 94 90 77 18 12 11 10
95 96 96 99 100 99 100 100 100 100 99 96 94 96 98 92 97 100 96 96 93 87 54 15 12 11 9
98 100 100 100 100 100 100 100 100 98 85 91 94 99 85 90 99 100 98 92 87 80 32 13 14 10 9
100 99 100 100 99 99 100 100 100 92 88 90 96 96 84 80 68 93 95 94 84 63 17 15 17 13 13
99 100 100 100 100 100 100 100 100 100 99 100 95 77 84 86 72 39 87 89 78 39 17 18 19 20 23
98 100 100 100 100 100 100 100 100 100 100 100 99 91 84 95 92 36 37 61 56 30 21 21 21 25 27
99 99 100 100 100 100 100 100 100 99 100 100 100 100 93 63 76 78 40 23 19 25 18 21 26 25 28
99 99 99 100 100 100 100 100 100 100 100 99 100 100 94 74 75 66 49 30 18 21 19 26 26 27 32
99 99 99 99 99 100 100 100 99 100 99 99 99 100 89 66 38 28 32 20 22 21 23 28 28 33 38

GFSFLT2_850_rhum_108.txt.gz
RH
88 85 90 84 82 75 84 82 83 88 99 100 96 84 83 87 99 96 71 71 84 76 78 82 83 78 78
100 99 95 88 80 92 90 96 95 97 100 100 100 96 95 97 84 71 71 66 81 84 77 81 81 81 83
96 100 100 91 88 92 93 100 100 100 100 100 100 100 99 89 83 77 73 76 85 94 82 82 83 85 82
88 100 91 95 99 100 100 100 100 100 100 100 98 94 91 94 85 78 76 74 84 94 85 79 85 82 79
100 100 100 99 99 98 98 100 100 100 100 99 97 97 98 96 86 84 78 71 87 92 76 82 84 82 80
100 100 97 95 91 99 100 100 100 98 99 99 100 99 93 93 87 82 81 72 86 81 80 81 82 80 77
100 100 100 99 92 100 99 94 90 90 99 100 97 97 97 97 92 87 80 72 80 87 86 84 84 79 68
93 100 100 100 98 100 99 94 98 98 100 100 99 98 99 96 98 90 79 75 75 84 88 89 84 67 57
63 89 100 100 100 100 100 100 99 99 99 100 98 100 100 100 100 94 92 75 82 92 94 89 84 40 33
92 74 85 99 98 100 100 100 100 100 99 100 100 99 100 100 99 93 97 92 95 94 97 90 79 18 13
85 85 86 90 100 100 100 100 100 100 98 100 98 100 100 96 96 90 99 98 98 99 99 90 67 15 11
80 92 89 81 94 100 99 100 100 99 97 99 100 99 99 98 95 98 96 98 100 99 97 86 47 15 11
89 99 98 81 79 99 99 100 100 98 100 100 99 100 98 89 87 87 94 97 100 100 94 81 25 13 12
99 94 100 100 100 100 100 100 100 100 100 98 100 100 100 100 93 82 81 96 99 99 88 63 19 19 17
98 95 98 99 99 100 100 100 100 100 100 100 100 100 100 99 98 84 69 82 79 93 90 41 21 23 24
94 98 98 99 100 100 100 99 100 99 99 100 100 100 100 100 100 94 77 52 70 77 80 28 23 25 29
96 96 96 98 99 98 99 99 99 100 100 100 100 100 99 99 99 96 80 45 67 42 68 29 23 29 28

GFSFLT2_850_rhum_111.txt.gz
RH
89 89 94 94 91 85 84 81 82 79 80 73 72 74 87 100 98 96 99 94 95 100 96 80 74 69 77
90 99 100 97 95 93 90 87 79 81 75 70 72 85 94 100 100 100 98 92 100 100 88 77 71 70 73
100 100 97 99 100 97 91 88 87 85 86 77 79 86 99 100 100 100 93 100 100 88 73 73 71 76 74
94 100 100 100 100 97 100 95 97 99 100 97 92 97 100 100 99 98 100 93 84 74 75 74 76 79 71
68 87 98 99 99 100 96 96 99 100 100 99 98 100 100 99 98 100 92 90 86 79 73 70 79 76 68
99 100 99 100 100 100 100 100 99 98 99 99 100 99 98 98 98 93 91 94 85 79 70 81 85 72 74
97 99 99 99 100 100 100 100 98 99 100 100 100 99 99 100 94 91 95 90 86 78 71 82 82 80 79
76 97 99 97 100 100 100 100 100 100 100 100 99 99 98 99 98 99 99 96 87 77 68 76 79 80 81
45 77 96 86 86 100 99 100 100 98 99 100 99 100 100 100 99 100 100 100 95 86 69 70 79 82 83
34 20 22 22 29 58 98 100 100 100 98 100 99 100 100 100 100 100 100 100 100 96 76 75 80 83 77
73 29 31 57 35 60 55 94 100 100 98 99 100 100 100 100 100 100 99 99 100 100 77 77 86 87 84
95 96 94 87 90 98 79 65 81 100 100 99 100 99 99 100 99 98 99 100 100 97 77 80 87 88 82
80 77 84 97 96 82 97 99 99 95 100 100 98 100 100 99 98 98 100 99 98 100 87 85 82 83 82
85 90 83 89 91 88 90 97 99 99 96 100 100 100 100 99 100 100 100 98 98 100 99 90 90 92 72
84 83 88 78 94 92 92 100 99 100 99 99 100 100 100 100 100 100 100 100 100 99 100 95 99 91 46
86 88 96 100 99 98 95 99 99 99 99 98 99 100 100 100 100 100 100 100 100 100 100 97 98 87 27
90 92 95 99 99 98 98 99 99 98 99 100 100 100 100 99 99 100 100 100 100 100 99 100 95 72 25

GFSFLT2_850_rhum_114.txt.gz
RH
96 99 100 100 100 99 92 92 83 84 77 76 79 80 78 75 71 72 79 81 90 98 100 100 90 96 90
91 92 98 100 99 100 97 100 93 90 91 92 87 80 79 80 74 74 74 89 92 99 100 100 88 99 77
83 87 92 98 100 100 100 100 100 99 98 99 96 96 96 92 80 88 91 97 99 100 100 97 97 97 65
32 44 66 80 98 100 100 100 98 97 100 100 100 100 100 99 93 93 94 94 100 100 98 97 99 75 64
33 43 62 94 99 99 99 100 98 98 99 94 95 99 94 96 95 98 100 98 100 98 98 100 82 70 68
75 93 89 99 99 100 100 99 99 91 98 96 93 90 90 95 88 97 100 100 96 99 100 88 74 70 61
92 90 91 86 99 98 98 100 100 99 100 98 99 96 98 98 100 100 100 98 100 100 95 89 77 70 64
53 51 50 46 48 86 98 98 98 99 100 100 98 98 99 100 100 100 100 100 100 97 91 91 82 73 76
57 54 40 28 31 37 33 64 86 98 96 100 98 99 99 99 99 100 100 100 100 100 96 92 83 73 75
47 35 38 42 46 44 66 85 92 92 96 100 100 100 100 97 100 100 100 100 100 100 100 94 87 74 72
75 74 53 63 68 99 100 92 100 100 99 100 100 100 100 100 94 100 100 100 100 100 100 100 97 80 70
85 82 82 81 87 69 76 99 89 92 98 100 100 100 100 100 99 98 100 99 100 100 100 100 100 92 78
87 82 80 78 77 76 62 56 68 75 75 95 100 99 100 100 99 98 100 98 99 100 100 100 98 98 83
83 81 82 82 79 87 100 99 98 86 85 82 96 100 99 100 100 100 99 98 98 99 100 100 100 100 88
82 87 84 82 80 82 100 100 100 100 88 88 97 99 100 100 100 100 100 100 100 99 100 100 100 100 96
86 84 90 91 84 83 96 100 100 100 100 89 99 100 100 99 100 100 100 99 99 100 100 100 100 100 100
87 94 94 88 92 88 89 98 97 100 100 100 98 100 100 100 99 100 100 100 100 100 100 98 99 99 100

GFSFLT2_850_rhum_117.txt.gz
RH
90 82 90 94 97 98 99 99 98 100 99 88 86 78 75 78 83 86 84 81 86 92 76 92 90 100 100
60 50 52 75 92 98 94 100 100 100 100 100 94 93 75 86 86 89 90 84 83 93 89 90 98 99 100
32 30 33 40 68 90 93 98 98 100 100 100 100 91 91 88 95 86 87 89 87 87 89 98 98 98 100
32 27 27 31 52 67 81 90 95 99 100 99 98 100 100 100 99 96 100 97 95 93 98 94 100 99 100
61 46 40 43 58 80 90 76 83 97 98 100 99 99 100 99 93 91 92 96 98 97 99 99 100 100 100
69 66 55 50 45 52 57 78 92 78 97 94 100 97 94 90 91 91 90 96 100 100 100 100 100 100 98
58 49 47 40 51 45 40 47 56 61 95 97 98 96 91 86 82 89 92 97 100 100 100 100 100 100 99
70 61 60 45 46 54 56 43 42 26 24 90 81 97 88 86 88 87 90 94 100 100 100 100 100 100 93
79 72 62 56 50 73 52 74 94 78 44 81 69 96 87 88 96 99 100 100 100 100 100 100 100 99 96
80 57 46 46 54 72 84 99 100 99 83 100 99 100 100 79 80 96 100 100 100 100 100 100 100 96 96
88 64 49 52 51 61 72 82 84 90 96 87 95 98 100 99 98 100 100 99 100 100 100 100 100 96 97
90 66 63 62 63 64 63 60 60 69 56 71 89 76 94 97 99 97 99 99 100 100 100 100 100 100 100
80 80 75 75 77 78 70 56 64 85 100 96 94 84 80 84 98 98 100 99 99 99 100 100 99 98 99
90 80 77 77 81 84 86 73 80 75 82 92 100 100 98 84 81 98 98 100 99 100 100 100 100 100 100
90 82 80 81 83 94 86 85 97 96 91 90 100 100 100 93 94 93 99 99 99 100 100 100 100 100 99
88 93 87 83 91 88 91 88 85 86 92 94 98 99 99 89 93 97 99 100 100 100 100 100 100 100 100
87 87 88 91 93 87 87 88 95 100 96 96 99 99 99 99 87 76 98 98 100 100 100 100 98 98 98

GFSFLT2_850_rhum_120.txt.gz
RH
52 62 70 72 69 79 84 93 98 100 96 94 99 100 97 96 89 83 85 85 93 92 87 84 83 89 95
77 66 37 28 57 47 46 84 94 98 100 98 91 100 99 100 96 87 94 95 87 88 96 93 91 88 100
46 47 33 19 16 25 26 37 74 96 99 99 98 96 98 100 100 98 94 90 88 89 100 96 94 96 96
33 27 26 22 21 19 13 20 31 60 94 100 98 100 100 99 99 100 100 90 96 98 92 94 91 91 94
36 36 35 27 27 23 21 14 9 19 39 88 93 100 100 100 100 98 98 100 100 100 96 96 95 98 93
49 50 42 41 41 38 34 25 28 8 11 16 42 80 96 100 100 100 100 98 94 91 91 92 95 100 99
74 69 70 60 59 51 47 46 44 18 18 17 7 11 50 81 95 99 98 94 93 90 86 92 100 100 100
79 77 81 61 58 72 66 78 55 38 43 74 19 15 9 18 34 84 93 94 92 88 88 92 100 100 100
69 82 85 66 53 67 61 72 74 76 31 100 99 97 62 24 12 25 78 98 95 99 96 97 99 100 100
73 70 80 73 54 60 71 80 91 95 67 75 76 78 87 64 59 80 56 75 98 99 100 100 98 100 100
93 83 79 75 58 56 64 74 81 80 55 68 70 51 60 81 43 61 92 99 98 100 100 100 100 100 100
96 80 87 71 62 61 63 72 79 81 58 60 100 95 100 100 98 27 31 77 98 99 100 100 100 100 100
83 92 89 77 71 66 67 68 70 62 60 58 97 100 100 99 100 97 80 20 56 98 100 100 100 100 100
95 97 96 88 75 67 68 66 79 49 51 61 74 95 98 98 98 98 99 100 53 90 100 100 100 100 100
98 97 94 86 84 75 79 85 85 70 48 56 65 76 95 96 99 97 97 99 100 68 94 100 100 100 99
79 79 82 85 84 85 88 90 86 86 88 70 93 91 85 91 90 86 94 95 91 99 74 100 100 98 100
91 86 87 87 96 97 86 82 88 90 94 90 100 100 96 100 71 90 94 98 97 95 100 100 100 98 98

GFSFLT2_850_rhum_123.txt.gz
RH
68 63 58 58 56 57 58 68 65 70 91 93 100 96 93 95 91 93 95 97 95 83 77 82 97 100 96
40 32 34 46 60 64 58 39 41 48 61 96 96 96 96 97 95 98 100 100 99 93 85 85 88 92 99
36 23 18 17 13 14 16 16 13 20 35 47 95 98 96 96 96 99 99 93 100 90 88 85 87 96 98
38 28 25 21 20 16 9 10 10 8 9 18 37 92 100 100 100 100 99 100 96 99 94 88 94 94 100
47 44 36 32 31 30 25 19 14 12 14 11 11 22 77 99 99 100 100 100 98 98 100 98 98 100 96
61 65 58 62 62 55 47 36 29 15 20 12 12 9 9 23 83 99 100 100 100 99 100 100 99 100 100
75 71 70 74 77 61 50 57 55 32 42 27 17 20 19 16 14 40 97 99 100 100 100 100 98 97 99
78 74 69 75 95 76 59 64 55 38 42 69 36 44 25 20 32 31 26 83 93 97 100 100 97 92 93
85 88 79 79 86 87 65 60 63 52 37 100 64 40 23 15 18 32 85 53 64 88 100 100 96 93 94
82 92 85 80 83 92 74 72 75 88 44 73 56 58 82 23 34 82 75 91 58 70 97 100 100 99 100
88 90 86 84 76 81 73 72 78 89 54 81 81 59 92 100 35 17 17 15 56 92 100 100 100 98 100
88 83 80 77 80 82 73 68 67 73 60 59 80 64 72 96 100 36 29 20 21 34 78 100 100 100 99
77 77 79 88 96 85 72 68 65 58 55 52 60 65 85 100 94 91 76 28 26 21 24 72 100 98 100
100 88 89 94 94 84 81 71 66 50 48 54 54 66 66 100 100 89 78 84 46 24 27 42 86 99 100
93 91 89 86 82 78 78 78 81 74 55 57 57 65 75 85 100 91 67 66 58 52 52 30 37 94 100
79 80 81 80 79 78 83 95 97 89 73 63 71 97 100 76 82 73 78 74 66 77 88 93 52 62 90
90 90 89 89 88 88 94 95 90 87 94 75 81 96 100 100 72 81 81 80 78 89 99 100 99 81 79